Location: Saluda
(35.2377°N, 82.3468°W)
Time: 15:49:13
(UTC+00:00)

Explorer 11/Cluster Stage 4 - Pass Details

Date: 06 October 2022
Orbit: 466 x 1247 km, 28.8° (Epoch: 08 December)

Event Time Altitude Azimuth Distance (km) Brightness Sun altitude
Rises 16:33:13 0° 252° (WSW) 4,154 10.3 48.2°
Reaches altitude 10° 16:36:12 10° 247° (WSW) 3,210 9.9 48.3°
Maximum altitude 16:44:06 52° 174° (S) 1,480 11.1 48.7°
Drops below altitude 10° 16:51:28 10° 101° (E) 3,002 9.9 49.0°
Sets 16:54:10 0° 96° (E) 3,869 10.3 49.1°
